{"data":{"norad_id":48644,"epoch":"2026-05-25T02:39:47.903040Z","epoch_age_seconds":61368,"freshness":"FRESH","line1":"1 48644U 21044G   26145.11097110  .00001113  00000+0  47650-4 0  9996","line2":"2 48644  53.1595 118.6085 0001224  91.7582 268.3560 15.31693045275535","mean_motion":15.31693045,"eccentricity":0.0001224,"inclination_deg":53.1595,"raan_deg":118.6085,"arg_perigee_deg":91.7582,"mean_anomaly_deg":268.356,"bstar":4.765e-5,"rev_number":27553,"period_min":94.013614849312,"perigee_km":469.92242271531,"apogee_km":471.59903287907,"semimajor_km":6848.8977277972,"source":"CELESTRAK","updated_at":"2026-05-25T13:38:16.754107Z"}}